Temperature
23 20 19 19 20 20 21 21 21 23 24 24 23 22 22 21 20 18 16 15 15 15 16 17 18 18 18 18 18 18 17 17 16 16 16 16 15 15 15 14 14 14 14 14
20 19 20 21 21 22 21 21 21 22 24 25 23 22 21 20 19 17 16 15 15 14 14 16 16 17 17 17 16 16 16 15 15 15 15 15 14 14 14 13 13 13 13 12
19 20 22 22 21 22 22 21 21 22 24 24 23 22 21 20 19 17 16 15 14 14 14 14 15 15 15 15 15 15 15 15 14 14 14 14 13 13 13 13 12 12 12 11
20 21 22 22 22 22 22 23 23 23 23 21 22 20 20 19 17 16 15 14 14 14 14 14 14 14 14 14 14 14 14 14 14 13 13 13 13 13 12 12 11 11 10 10
20 22 22 22 23 23 22 24 23 24 23 21 20 19 18 18 16 15 15 14 13 13 13 13 13 13 13 13 13 13 13 13 13 13 13 13 12 12 11 11 10 10 10 9
21 22 22 22 24 24 24 23 23 20 18 19 20 19 18 17 17 15 15 14 13 12 12 12 12 12 13 13 13 13 13 13 12 12 12 12 11 10 10 9 9 9 8 8
21 22 23 24 23 23 23 20 19 19 17 18 19 19 18 18 17 16 15 14 13 12 12 12 12 12 12 12 12 12 12 12 12 11 11 10 10 9 8 8 7 7 6 6
19 20 22 23 22 22 21 19 18 18 17 17 19 18 17 18 17 16 15 14 13 12 12 12 12 12 12 12 12 11 11 11 10 10 9 9 8 8 7 6 6 5 5 5
19 20 22 23 24 23 21 19 18 18 17 17 17 18 17 17 16 15 14 14 13 12 12 12 12 12 12 11 11 11 10 10 9 9 8 8 7 7 6 6 5 5 5 5
19 19 21 23 24 24 22 21 17 16 17 17 17 17 16 15 15 15 14 13 13 12 12 12 12 12 11 11 10 10 10 9 9 8 8 7 6 6 5 5 5 4 4 4
20 18 19 21 22 22 23 22 19 16 17 17 16 16 17 17 16 15 14 13 13 12 12 12 12 11 11 10 10 10 9 9 8 7 7 6 6 5 5 5 4 4 4 4
17 16 17 18 20 22 22 21 19 18 18 16 16 16 18 17 15 14 14 13 13 13 13 12 12 11 10 10 10 9 9 8 8 7 6 5 5 5 5 4 4 4 4 4
18 16 15 17 18 19 21 21 20 18 17 16 16 16 16 16 15 14 14 13 13 13 12 12 11 11 10 10 9 9 9 8 7 6 5 5 5 4 4 4 4 4 4 4
17 15 15 16 16 18 18 19 20 18 17 17 17 17 15 14 14 14 14 13 12 12 12 11 11 10 10 9 9 9 8 7 6 5 5 5 4 4 4 4 4 4 3 3
13 14 15 15 17 18 19 19 19 18 17 17 17 16 14 14 13 13 13 12 12 11 10 10 10 9 9 9 8 8 7 6 6 5 5 4 4 4 4 4 4 3 3 3
11 12 13 14 17 18 18 19 19 19 18 17 16 14 13 13 13 12 12 12 11 10 9 9 9 9 9 8 8 7 6 6 5 5 4 4 4 4 4 4 4 3 3 3
11 11 12 12 14 16 15 17 18 18 18 17 15 13 13 12 12 12 11 11 10 9 9 9 9 8 8 8 7 6 6 5 5 5 4 4 4 4 4 4 4 4 3 3
10 11 10 10 13 13 14 16 17 17 17 16 14 13 13 12 11 11 11 10 9 8 8 8 8 8 8 7 6 6 5 5 5 4 4 4 4 4 4 4 4 4 4 3
10 10 10 10 11 13 15 14 14 15 14 14 14 12 11 10 9 8 9 9 9 8 8 8 8 7 7 6 5 5 5 5 4 4 4 4 4 4 4 4 4 4 3 3
10 10 10 10 11 11 13 13 14 13 12 13 12 11 10 11 8 7 7 8 8 8 8 7 7 6 6 5 5 5 4 4 4 5 5 5 5 5 5 5 4 4 3 2
9 9 9 9 9 10 11 11 13 12 11 12 11 11 10 9 8 7 7 8 8 8 7 7 6 6 5 5 5 5 5 5 5 5 5 5 5 5 5 5 4 4 3 2
8 8 8 8 9 9 11 11 11 10 11 11 10 10 9 7 7 7 7 8 8 7 7 7 6 5 5 5 5 5 5 5 5 5 5 5 6 6 5 5 4 3 2 1
7 7 7 8 8 9 10 10 10 11 9 9 9 8 8 7 7 7 7 7 7 7 6 5 5 5 5 5 5 5 5 5 5 5 5 5 5 5 5 4 3 2 1 0
7 7 7 8 8 9 9 9 10 10 10 9 9 9 9 8 8 8 8 7 7 6 5 5 5 5 5 5 5 5 5 5 5 5 5 5 5 4 3 3 2 1 -0 -1
8 7 8 8 8 9 9 9 9 9 9 9 9 9 9 9 8 8 7 6 5 5 5 5 5 6 6 6 6 5 5 5 5 5 5 4 4 3 2 1 0 -1 -2 -2
8 8 7 8 8 8 9 9 9 9 9 9 9 8 8 8 7 6 6 5 5 5 5 5 6 6 6 6 6 6 5 5 5 5 4 3 2 1 0 -0 -1 -2 -2 -3
Wind_Speed
5 4 8 10 9 9 7 9 13 17 14 7 7 7 7 12 20 21 20 20 20 17 12 10 9 8 9 8 8 8 8 8 6 5 4 5 5 5 6 8 13 13 13 12
1 9 13 10 9 9 10 12 15 15 11 2 2 2 3 9 17 22 24 22 22 19 15 12 9 8 8 8 9 9 10 9 8 6 4 4 4 5 5 7 11 14 14 13
11 10 9 11 11 12 13 12 14 13 9 3 4 5 4 6 12 16 18 20 20 21 20 16 13 10 10 10 10 11 11 11 11 9 7 6 5 5 5 7 7 10 14 14
9 12 11 11 12 12 15 16 13 11 6 5 4 4 4 5 9 13 15 17 18 19 19 17 16 14 13 12 12 13 12 12 11 10 10 10 7 6 5 4 5 7 12 13
9 9 11 13 16 14 14 17 13 9 5 3 1 5 6 7 9 11 13 16 17 17 18 18 16 15 14 13 12 11 11 11 10 10 9 8 7 5 4 5 7 7 7 10
13 11 9 11 13 13 13 10 3 3 4 3 7 6 7 9 15 18 16 18 18 17 17 17 15 14 14 12 11 10 10 9 8 9 9 9 8 7 6 6 6 6 5 5
13 14 13 10 12 13 6 4 1 4 4 8 6 5 8 9 17 21 22 20 17 17 18 17 16 14 13 11 10 9 10 8 7 8 8 8 7 6 5 4 4 4 4 4
11 13 12 10 12 13 9 10 10 9 8 7 3 4 5 7 17 18 19 19 18 16 16 17 16 14 13 11 9 9 9 8 7 8 7 6 6 4 3 3 3 3 3 4
11 13 11 10 9 9 8 8 11 9 7 4 4 2 4 9 18 20 21 21 19 17 17 17 16 14 12 10 9 9 9 8 7 7 6 5 4 4 3 3 3 3 3 4
7 9 11 10 7 7 9 8 6 7 8 6 5 7 10 15 18 19 20 20 18 17 16 16 15 13 11 9 9 9 9 8 6 5 4 4 3 2 2 3 4 5 5 4
3 4 8 6 6 9 5 3 5 6 7 8 7 9 11 23 23 22 19 19 19 18 16 14 13 12 11 10 9 9 8 7 6 5 4 3 2 2 2 3 4 5 5 6
5 3 3 8 8 7 8 9 8 6 7 6 6 9 6 20 18 19 19 19 18 17 15 14 14 12 11 10 9 8 7 6 4 3 3 2 1 2 4 5 6 6 6 6
5 4 5 10 8 7 3 3 4 5 5 5 4 8 2 12 14 17 19 20 18 17 15 14 13 12 11 9 8 7 6 5 3 3 3 2 3 4 5 6 6 6 6 6
4 2 6 8 8 6 7 8 4 2 3 3 4 3 3 11 14 15 16 16 16 16 16 15 12 11 10 9 8 7 5 4 3 3 3 4 4 5 6 6 6 5 5 5
6 2 6 9 10 9 9 9 6 3 5 6 5 6 9 13 14 14 14 15 16 16 16 15 13 10 9 8 7 6 4 3 2 3 4 4 4 5 5 5 5 5 5 5
6 3 6 6 6 9 12 11 7 5 5 6 8 4 7 11 11 13 15 17 16 15 15 14 13 11 9 7 6 4 3 2 2 3 3 3 3 4 5 5 5 5 5 5
3 3 5 5 8 7 9 8 8 6 6 8 8 9 17 19 18 17 16 16 16 16 15 14 11 9 8 6 5 3 2 3 3 3 3 3 3 4 5 6 6 6 5 4
7 3 3 4 4 8 9 5 5 6 5 7 10 18 20 18 13 11 14 17 17 17 15 12 9 8 6 5 3 2 3 2 2 3 4 4 5 6 6 6 6 6 5 4
9 8 5 4 5 7 5 4 2 3 2 4 18 22 22 25 21 13 13 17 16 14 12 9 8 7 6 5 3 3 4 3 3 4 5 6 6 7 7 8 8 6 4 4
2 5 5 4 4 6 5 6 5 6 2 2 20 25 25 19 11 9 12 17 16 12 9 8 7 7 6 3 2 2 3 4 5 6 7 8 8 8 9 9 8 4 2 3
6 3 3 6 7 7 5 6 3 5 6 6 11 14 11 7 11 15 15 14 13 11 9 8 8 6 3 1 1 2 3 5 7 7 7 8 8 8 8 6 4 3 5 7
3 3 3 3 6 9 4 1 5 6 8 13 12 13 18 21 22 18 16 13 11 10 9 8 7 3 1 1 1 2 5 7 7 7 7 8 8 7 5 6 7 8 8 8
4 4 3 4 6 5 3 4 6 12 16 15 15 18 21 21 19 17 13 11 9 9 7 5 4 2 3 4 3 4 6 7 6 7 8 8 8 9 9 9 9 8 7 6
4 3 3 3 3 1 6 11 13 17 18 18 18 19 19 20 17 16 12 9 8 6 5 3 3 2 4 4 3 4 5 4 5 7 7 7 8 9 9 7 6 6 5 5
5 3 2 1 3 8 9 13 17 18 18 19 17 17 17 19 16 13 11 8 7 5 3 3 3 3 4 3 2 2 3 5 6 7 8 8 8 7 7 6 4 4 2 1
4 3 2 2 1 5 10 13 19 20 18 19 19 16 14 15 13 12 9 7 6 5 3 2 2 1 1 1 2 3 4 6 7 8 8 6 5 5 4 4 4 5 4 6
Wind_Direction
216 164 221 227 217 213 238 269 279 280 287 297 265 222 177 133 122 126 126 126 125 123 121 112 104 96 87 76 67 58 50 38 45 50 51 56 55 48 44 44 41 37 33 30
243 235 228 221 229 235 245 259 270 283 283 259 20 40 123 135 135 138 136 134 132 130 130 126 112 99 91 85 73 63 57 52 54 61 62 67 70 61 56 36 33 31 29 25
213 238 230 222 237 244 251 241 249 254 281 353 86 21 43 69 105 119 125 130 132 134 134 132 124 110 98 88 81 76 70 65 62 62 63 59 44 34 28 22 20 21 28 29
234 244 245 240 238 228 253 250 240 247 252 264 144 192 224 138 110 122 129 133 134 133 131 128 123 114 106 99 90 83 77 72 67 66 69 67 62 47 21 16 20 17 24 28
232 231 229 237 244 235 237 250 236 230 226 265 304 167 233 148 140 146 142 137 134 133 130 128 124 119 113 106 98 91 84 77 71 70 71 69 62 52 34 29 22 13 10 19
236 246 234 236 255 248 242 243 253 67 83 270 250 202 233 190 175 158 148 141 137 134 129 125 122 119 114 107 101 97 90 81 74 71 67 69 66 55 38 21 9 2 355 356
251 259 258 254 270 283 256 191 300 303 314 252 256 229 245 198 164 157 150 145 141 138 135 133 130 127 121 116 112 105 99 90 82 76 71 73 70 59 42 13 1 355 345 334
222 253 248 244 233 243 244 171 181 206 227 260 311 225 280 147 141 142 144 143 143 142 140 139 137 133 129 128 123 116 108 100 87 84 81 72 66 56 31 7 354 339 315 299
202 234 242 238 243 216 228 206 188 171 187 206 237 154 54 115 139 148 150 150 150 148 145 142 138 134 133 132 128 123 115 103 95 95 94 74 62 51 25 0 347 324 310 311
204 237 256 253 255 268 206 192 123 141 172 225 234 201 187 176 169 162 158 155 152 149 147 143 138 135 131 125 118 112 111 111 106 96 89 86 60 39 13 351 332 318 311 309
48 215 286 303 232 240 252 213 163 150 165 184 225 246 205 185 177 168 162 157 153 151 148 142 137 131 123 116 114 111 108 105 103 103 97 80 34 359 345 325 310 305 304 311
14 95 288 274 258 226 214 216 187 186 223 185 194 254 238 179 171 161 155 154 151 148 143 137 131 124 118 116 115 110 104 100 103 104 87 60 339 328 326 314 309 309 311 313
2 65 3 339 336 354 335 276 203 168 161 175 200 269 1 145 150 155 154 152 149 142 135 128 123 122 121 119 114 106 100 95 83 67 44 357 327 322 318 312 312 316 318 322
45 170 187 219 244 283 303 308 310 170 173 202 209 234 131 149 153 155 152 147 142 137 132 126 120 117 115 112 108 104 95 86 62 32 6 337 320 318 317 319 323 321 322 324
41 281 252 242 248 259 268 277 286 258 187 183 196 176 185 171 158 149 140 136 135 133 129 125 120 116 111 105 99 94 79 49 26 6 347 325 322 330 334 337 331 325 323 323
12 342 338 301 271 268 269 266 260 248 209 169 140 143 142 126 120 130 135 136 136 133 129 124 121 116 111 107 99 79 46 358 356 346 330 323 338 340 334 324 317 317 316 311
307 9 356 292 298 304 264 245 233 220 196 165 173 170 144 139 144 145 141 137 136 133 129 124 121 120 117 112 103 74 6 343 351 330 316 312 316 318 313 313 315 308 302 297
202 211 230 260 306 248 254 269 219 196 207 176 152 152 148 134 118 114 126 128 129 127 125 123 124 118 112 105 87 45 1 346 342 323 309 298 295 293 296 302 295 287 280 283
199 188 203 218 234 269 291 339 338 145 319 161 140 135 126 117 97 85 107 116 118 119 122 126 127 121 111 97 68 23 348 335 323 305 293 284 278 280 285 286 280 276 278 300
64 155 187 217 217 239 245 298 303 104 46 100 139 141 141 129 126 136 124 117 115 114 116 119 116 104 97 87 54 22 338 320 297 285 282 282 280 275 275 275 277 280 307 11
353 356 202 217 229 250 254 291 355 142 190 125 130 136 130 107 124 132 125 117 116 114 110 105 98 94 107 115 52 348 315 294 283 286 290 293 290 284 282 292 318 9 52 52
278 273 249 206 215 244 239 169 165 172 121 112 105 102 102 108 116 122 121 117 113 106 98 92 91 99 181 224 213 293 293 283 293 305 312 313 316 325 357 42 49 56 59 50
257 235 253 239 239 271 242 165 135 121 112 110 110 114 119 120 123 122 119 116 107 100 96 96 114 159 251 260 242 268 283 296 320 335 336 345 15 40 55 66 65 59 52 43
266 248 244 270 288 63 107 113 107 108 111 114 120 124 124 122 121 118 114 110 107 110 116 124 145 203 256 273 279 266 289 333 6 359 359 29 61 60 56 61 65 66 53 36
258 255 247 191 112 95 104 112 111 108 108 111 114 118 120 120 119 120 120 123 127 127 131 151 181 222 262 295 304 301 351 28 25 18 32 60 75 73 66 60 51 57 48 47
236 216 165 163 163 116 115 112 112 110 110 113 113 109 111 119 122 123 126 130 130 132 147 176 221 263 336 33 4 2 36 56 50 46 54 67 78 77 69 58 22 356 334 332
Height
1499 1507 1511 1509 1508 1510 1511 1513 1514 1502 1491 1495 1494 1492 1489 1490 1491 1497 1502 1506 1510 1513 1517 1520 1523 1526 1528 1529 1531 1532 1533 1535 1536 1538 1539 1540 1540 1541 1541 1541 1540 1540 1539 1538
1503 1507 1500 1499 1501 1504 1508 1513 1511 1501 1491 1492 1495 1495 1492 1490 1490 1493 1498 1504 1508 1512 1516 1519 1522 1525 1527 1528 1530 1531 1532 1534 1535 1536 1537 1538 1539 1539 1539 1539 1538 1537 1536 1534
1504 1498 1493 1497 1500 1503 1504 1508 1506 1503 1492 1490 1495 1504 1501 1499 1498 1500 1502 1504 1507 1510 1514 1518 1521 1524 1526 1527 1529 1531 1532 1534 1535 1536 1536 1537 1537 1537 1537 1537 1536 1535 1533 1531
1496 1490 1491 1494 1495 1496 1503 1491 1493 1494 1498 1506 1500 1521 1510 1506 1506 1506 1506 1507 1509 1512 1514 1517 1520 1523 1525 1527 1530 1532 1534 1535 1536 1536 1537 1537 1536 1536 1535 1534 1533 1532 1530 1527
1491 1485 1488 1491 1488 1487 1489 1480 1484 1486 1492 1503 1503 1517 1515 1509 1512 1511 1510 1510 1511 1513 1514 1517 1520 1522 1525 1527 1530 1533 1535 1536 1537 1537 1537 1536 1535 1535 1534 1532 1530 1528 1526 1524
1481 1477 1479 1480 1477 1477 1476 1479 1481 1489 1501 1514 1505 1512 1514 1505 1502 1506 1509 1511 1512 1514 1517 1519 1521 1523 1525 1528 1531 1534 1536 1537 1538 1537 1536 1535 1534 1532 1531 1528 1526 1524 1522 1519
1483 1476 1472 1472 1477 1473 1475 1491 1510 1512 1521 1518 1500 1503 1502 1490 1491 1496 1503 1509 1512 1515 1516 1519 1521 1524 1526 1529 1532 1535 1536 1537 1537 1536 1535 1533 1532 1530 1527 1525 1522 1520 1518 1515
1490 1486 1470 1465 1470 1475 1475 1486 1509 1521 1524 1515 1500 1503 1497 1484 1489 1497 1502 1506 1511 1514 1516 1518 1520 1523 1526 1530 1532 1534 1536 1536 1536 1535 1533 1531 1529 1527 1524 1522 1519 1517 1514 1512
1480 1477 1458 1457 1457 1462 1472 1479 1478 1495 1504 1512 1508 1499 1497 1492 1493 1497 1501 1504 1508 1512 1515 1517 1519 1523 1527 1530 1532 1533 1534 1534 1534 1533 1531 1529 1526 1524 1521 1519 1516 1514 1512 1509
1465 1472 1459 1452 1453 1454 1459 1464 1483 1497 1511 1518 1508 1504 1501 1497 1495 1495 1498 1501 1505 1510 1513 1515 1518 1522 1526 1529 1531 1532 1533 1532 1532 1531 1529 1526 1524 1521 1518 1516 1513 1511 1509 1506
1462 1473 1467 1459 1459 1461 1458 1463 1471 1485 1491 1504 1515 1503 1475 1478 1481 1486 1492 1497 1502 1506 1510 1513 1517 1521 1525 1528 1530 1531 1531 1530 1529 1528 1526 1523 1521 1518 1516 1514 1511 1509 1506 1504
1466 1473 1477 1466 1452 1448 1451 1456 1465 1483 1487 1491 1499 1493 1462 1467 1474 1481 1488 1494 1499 1504 1508 1512 1516 1521 1524 1527 1529 1529 1529 1528 1527 1525 1523 1521 1518 1516 1514 1511 1509 1506 1504 1501
1466 1476 1487 1479 1468 1457 1454 1453 1457 1465 1476 1488 1495 1488 1465 1468 1476 1481 1485 1491 1497 1502 1507 1512 1516 1520 1524 1526 1527 1527 1527 1526 1524 1523 1521 1518 1516 1514 1511 1509 1506 1504 1502 1499
1464 1475 1484 1487 1478 1467 1464 1459 1457 1464 1476 1479 1478 1477 1476 1476 1479 1483 1487 1492 1496 1501 1506 1511 1516 1520 1523 1524 1525 1525 1525 1524 1522 1520 1518 1516 1514 1512 1509 1507 1505 1502 1500 1497
1470 1477 1473 1471 1464 1461 1459 1457 1456 1460 1464 1472 1470 1472 1474 1475 1478 1483 1489 1494 1500 1504 1508 1511 1516 1519 1521 1523 1524 1523 1523 1522 1521 1519 1517 1515 1512 1510 1508 1506 1503 1501 1498 1495
1475 1479 1475 1470 1461 1458 1456 1452 1452 1454 1456 1460 1465 1472 1469 1475 1481 1487 1492 1497 1502 1507 1510 1514 1516 1519 1521 1522 1523 1523 1522 1521 1520 1518 1516 1514 1511 1509 1507 1504 1502 1499 1496 1493
1478 1480 1483 1480 1467 1461 1463 1451 1449 1449 1448 1454 1463 1467 1467 1473 1480 1485 1491 1497 1502 1506 1511 1514 1517 1519 1520 1521 1522 1522 1522 1521 1519 1517 1516 1513 1511 1508 1506 1503 1500 1498 1494 1491
1475 1479 1484 1481 1472 1476 1459 1444 1440 1443 1444 1444 1449 1456 1462 1470 1480 1485 1491 1496 1502 1506 1510 1514 1516 1518 1519 1520 1521 1522 1522 1520 1519 1517 1515 1512 1509 1507 1504 1502 1499 1496 1492 1489
1465 1473 1480 1481 1477 1467 1453 1448 1446 1446 1450 1445 1447 1457 1467 1472 1482 1493 1495 1498 1504 1508 1511 1515 1516 1517 1518 1520 1521 1522 1521 1520 1518 1516 1513 1511 1508 1505 1502 1500 1496 1493 1490 1486
1463 1467 1476 1477 1476 1472 1458 1450 1445 1447 1457 1450 1449 1456 1462 1466 1482 1497 1498 1500 1505 1510 1513 1514 1515 1516 1518 1520 1522 1522 1521 1519 1517 1514 1512 1509 1506 1503 1500 1497 1494 1491 1487 1484
1472 1473 1474 1475 1475 1464 1453 1449 1446 1458 1460 1456 1458 1460 1463 1466 1476 1491 1498 1503 1507 1510 1512 1514 1515 1516 1519 1521 1522 1521 1520 1518 1516 1513 1510 1507 1504 1501 1497 1494 1491 1487 1484 1481
1477 1477 1473 1471 1472 1466 1449 1448 1450 1452 1452 1456 1463 1467 1468 1473 1483 1491 1498 1504 1508 1509 1511 1513 1515 1518 1521 1522 1522 1521 1519 1517 1514 1512 1509 1506 1502 1498 1495 1491 1488 1485 1482 1479
1477 1475 1472 1469 1464 1454 1448 1446 1447 1447 1452 1459 1466 1471 1475 1480 1487 1493 1499 1504 1507 1510 1512 1515 1518 1521 1522 1522 1522 1520 1518 1516 1513 1511 1508 1504 1500 1497 1493 1490 1487 1484 1481 1477
1473 1470 1469 1464 1458 1453 1451 1450 1450 1453 1457 1464 1470 1476 1481 1485 1491 1496 1501 1506 1509 1512 1515 1518 1520 1521 1522 1522 1521 1520 1518 1516 1513 1510 1506 1503 1500 1497 1494 1491 1488 1484 1480 1476
1470 1467 1464 1462 1459 1458 1458 1456 1457 1461 1465 1471 1477 1482 1486 1490 1495 1499 1504 1508 1512 1515 1517 1519 1521 1521 1522 1522 1522 1520 1518 1515 1513 1509 1506 1503 1500 1497 1494 1491 1488 1485 1481 1477
1466 1464 1463 1463 1462 1461 1464 1465 1466 1469 1474 1479 1483 1488 1493 1495 1499 1503 1507 1511 1514 1516 1519 1520 1522 1522 1523 1523 1522 1520 1519 1516 1513 1510 1507 1505 1502 1499 1495 1493 1490 1486 1483 1478